Theta_e
303 303 303 303 303 303 303 304 304 304 304 304 304 304 304 305 304 305 306 306 306 306 306 306 307 308 309 306 306 308 307 306 307 307 306 305 305 306 307 307 307 307 308 308 307 309 310 311 312 313 313 313 313 312 313 313 312 314 315 314 311 311 310 305 308 309 309 307 303 303 305 305 304 302 302 302 301 300 299 299 299 300 301 301 300 298 298 298
303 303 303 303 303 303 304 304 304 304 304 305 305 305 305 305 305 305 306 306 306 306 306 307 308 309 310 308 307 308 308 307 307 307 306 306 306 306 306 307 307 307 308 308 308 309 310 311 312 313 313 311 311 311 312 311 309 309 311 312 309 308 305 301 303 305 306 305 301 302 304 304 304 302 303 302 299 299 299 298 298 299 299 299 300 299 299 299
303 303 303 303 304 304 304 304 304 304 304 305 305 305 305 305 306 306 306 306 306 306 306 307 308 310 309 308 308 308 308 308 307 306 305 306 306 306 307 307 307 307 308 309 309 311 311 312 312 312 312 309 308 310 309 309 308 305 308 312 306 304 302 300 302 305 306 305 300 301 302 302 301 302 303 301 299 298 298 298 298 299 299 300 301 300 300 299
303 303 303 304 304 304 304 304 304 304 305 305 305 305 305 305 306 306 306 306 306 306 306 306 308 309 308 307 307 307 308 308 305 304 305 306 306 307 307 306 307 307 307 309 309 311 311 312 312 312 311 307 306 308 305 305 308 305 307 310 304 301 302 302 303 305 305 304 302 301 302 302 301 302 302 302 304 301 297 299 300 301 301 301 301 300 300 299
303 303 304 304 304 304 304 304 304 304 304 305 305 305 305 305 305 306 306 306 307 306 305 306 307 308 308 307 307 307 310 310 304 304 305 306 307 307 307 307 307 307 307 308 309 310 311 311 312 311 308 304 305 308 304 303 305 303 302 304 302 301 302 301 301 303 303 303 303 302 302 302 300 301 299 301 306 302 297 298 299 300 300 300 300 300 299 299
304 303 304 304 304 304 304 304 304 304 305 305 305 305 305 305 305 306 306 306 307 307 306 306 306 307 307 306 307 308 308 307 303 304 305 306 307 307 308 307 307 307 307 308 308 309 310 311 311 308 304 302 302 305 304 303 304 304 302 300 300 301 301 300 301 301 302 304 303 301 302 301 300 300 298 298 300 298 297 298 298 298 298 299 300 300 299 299
303 303 304 304 304 304 304 304 305 305 305 305 305 305 305 305 305 305 306 306 306 307 307 306 306 306 307 307 307 306 305 303 302 303 304 306 307 307 308 308 307 307 307 308 308 309 309 310 309 305 304 304 303 303 303 304 303 304 303 299 300 301 299 300 301 301 303 303 301 301 301 300 300 300 299 297 296 296 297 298 298 298 298 299 299 300 299 299
304 304 304 304 304 304 304 304 304 305 305 305 305 305 306 306 306 306 306 307 306 307 307 307 307 306 307 307 308 306 304 303 303 303 304 306 306 307 308 309 308 307 307 307 308 308 309 308 307 306 305 305 305 304 304 304 303 302 302 300 299 300 299 300 302 302 303 301 300 301 299 298 299 299 298 296 297 297 298 298 298 298 298 298 298 298 297 297
304 304 304 305 304 304 305 304 304 305 305 305 305 305 306 306 307 306 306 307 307 307 307 307 307 307 306 307 308 306 303 303 304 303 304 306 306 307 307 308 308 308 308 308 308 308 308 307 306 307 306 304 303 302 304 305 304 301 301 300 299 299 300 301 302 301 301 300 301 300 297 297 299 299 298 296 297 297 297 298 298 298 298 297 296 296 295 294
304 304 304 304 304 304 304 304 305 305 305 306 306 306 306 306 307 307 306 307 307 307 307 307 307 307 307 308 308 305 303 304 304 303 304 305 306 306 307 307 307 308 308 308 308 308 308 307 307 307 306 303 302 301 302 304 303 301 300 300 300 300 301 301 301 301 301 301 301 301 297 297 298 299 300 297 297 297 297 298 297 296 296 295 295 295 294 293
304 304 304 304 304 304 305 305 305 306 306 307 306 306 305 306 307 307 307 307 307 308 308 308 307 308 309 308 307 304 304 305 305 304 304 305 306 306 306 306 307 307 307 308 308 308 308 307 307 307 306 304 302 301 301 302 302 301 301 301 300 301 301 300 301 301 301 301 301 301 298 298 299 300 299 297 297 297 297 297 296 295 295 294 294 294 294 293
304 304 304 304 304 304 305 305 305 306 306 306 307 307 306 306 308 308 307 307 307 307 308 308 309 308 309 308 305 303 305 305 305 305 305 305 305 305 306 306 306 307 307 307 307 307 307 307 307 306 305 303 302 302 302 301 302 301 301 303 302 302 302 300 300 300 301 301 300 300 300 301 302 299 297 297 297 297 297 297 295 295 295 295 295 294 295 294
304 304 304 304 304 304 305 305 305 305 305 306 307 307 306 306 308 308 307 307 307 307 308 308 308 309 309 307 304 304 305 305 305 305 305 305 305 305 305 305 306 306 307 306 306 306 306 306 306 305 303 303 302 302 303 301 302 302 300 302 308 308 303 299 298 300 301 300 299 300 302 303 302 297 296 296 297 297 297 296 295 295 295 295 295 295 295 296
304 304 304 304 305 305 305 305 305 304 305 307 308 307 307 306 307 308 307 307 308 308 308 309 309 309 308 306 305 306 305 305 306 306 305 305 305 304 304 305 306 306 306 306 305 306 305 306 306 305 303 303 302 303 305 304 304 304 301 302 308 309 304 300 298 298 301 300 299 300 302 302 299 296 295 296 297 297 296 296 296 295 295 296 295 296 296 296
305 304 304 304 305 305 305 305 304 304 305 307 308 308 307 306 307 308 308 308 308 308 309 309 310 309 307 305 306 306 306 307 307 306 305 305 305 304 304 305 305 306 306 305 305 305 305 306 305 303 302 302 303 305 308 309 306 305 305 306 307 305 303 301 297 296 299 299 298 301 303 301 299 296 295 296 296 296 296 296 296 296 296 296 296 296 296 296
305 305 305 305 305 305 305 305 305 304 304 306 308 309 308 307 306 307 308 308 308 308 308 309 309 309 307 306 306 306 306 307 306 306 305 305 305 305 304 304 304 305 305 305 305 305 306 306 304 301 301 301 301 305 309 311 309 306 305 306 304 303 303 302 299 297 297 298 298 299 301 301 298 296 295 296 296 296 296 296 296 296 296 296 296 296 296 296
305 305 305 305 305 305 305 305 305 305 304 306 308 308 308 308 307 307 307 308 309 309 309 309 308 309 307 305 306 305 305 306 306 306 305 304 305 305 305 305 304 304 305 305 305 306 305 304 303 301 300 298 297 303 312 310 308 306 306 306 302 300 301 301 301 298 296 298 298 298 298 298 295 294 295 295 295 296 296 296 296 296 296 296 296 296 296 296
305 305 306 306 306 305 305 306 305 306 305 305 307 308 308 308 308 308 308 308 309 309 310 309 309 311 308 305 304 304 304 305 305 306 306 305 304 304 305 304 305 305 305 305 305 305 305 302 302 301 299 298 296 300 309 307 304 305 305 305 301 300 301 299 299 298 297 297 297 297 297 296 294 293 294 295 295 295 295 295 295 295 296 296 296 296 296 296
305 305 306 306 306 306 306 306 306 306 306 305 306 307 308 308 308 308 308 309 309 308 308 307 307 309 307 304 304 304 304 305 305 306 306 306 305 305 305 305 306 305 304 306 304 302 302 301 301 303 301 300 297 297 301 302 302 303 303 302 300 301 302 299 298 297 296 298 297 296 296 295 295 294 294 295 295 295 295 295 296 296 297 297 297 297 297 297
306 306 306 306 306 306 306 306 306 306 306 306 306 308 309 309 309 307 306 307 306 304 304 304 304 305 305 303 304 305 305 305 306 306 306 306 306 305 306 305 305 304 302 303 304 300 300 300 300 301 300 300 298 296 296 297 299 302 302 302 300 301 303 300 299 296 295 299 299 297 296 294 295 294 293 296 296 296 296 296 297 297 298 298 298 298 298 298
306 306 306 306 306 306 306 306 306 306 306 306 306 308 308 308 310 307 304 304 303 303 304 304 304 304 304 304 304 304 305 305 306 306 305 305 306 306 305 303 303 304 300 299 302 300 299 300 299 298 297 297 296 295 296 298 300 303 302 303 301 301 302 300 298 296 295 299 299 297 296 296 296 294 293 296 296 295 296 296 297 297 297 298 297 298 298 298
307 307 307 306 306 306 306 306 307 306 306 306 307 309 309 309 309 308 306 305 303 303 304 304 304 304 304 304 304 304 304 304 305 306 305 305 305 304 301 300 301 301 299 300 303 302 300 300 299 296 294 294 296 296 298 300 302 304 303 305 304 300 301 300 299 298 298 299 299 297 297 297 297 295 293 295 295 295 295 295 296 297 297 297 297 297 298 297
307 307 307 307 307 306 306 307 306 306 306 306 308 309 309 308 307 307 307 306 304 303 304 304 304 304 304 305 304 304 302 301 302 303 304 305 304 303 300 299 299 299 299 301 303 302 301 300 297 295 293 296 299 297 299 302 301 302 302 304 303 300 301 302 301 300 299 299 300 299 299 298 299 296 294 295 295 295 296 296 296 297 297 297 297 297 297 297
307 308 307 307 308 307 307 307 306 306 306 305 307 307 308 307 307 307 305 305 305 304 304 304 304 304 304 304 304 304 302 300 300 301 303 305 304 303 301 300 300 300 298 299 300 300 300 298 296 295 295 299 300 298 299 302 302 303 303 302 301 299 299 300 300 300 300 299 299 301 304 302 300 299 297 295 295 295 296 296 297 297 297 296 296 296 296 296
307 308 308 307 308 307 307 306 306 306 305 305 305 305 306 306 306 306 306 308 308 305 306 305 303 305 303 303 305 304 303 302 300 301 302 303 303 303 302 300 301 302 300 299 300 300 299 297 296 297 299 301 300 299 298 299 303 304 301 300 299 298 297 298 299 300 304 303 298 300 306 305 300 299 298 296 296 296 295 296 296 296 296 296 296 296 295 295
307 308 307 307 308 308 308 306 306 306 305 306 304 304 305 305 306 305 308 319 316 305 305 306 303 305 304 303 304 305 307 305 300 301 302 303 303 303 303 301 300 301 300 299 300 300 299 297 296 297 301 302 301 300 298 297 303 304 298 297 297 296 297 298 299 302 306 305 298 299 304 305 301 298 297 298 298 298 296 295 295 296 296 296 295 295 295 295
307 308 307 308 308 308 308 306 306 306 306 305 304 305 304 303 306 304 310 328 320 304 304 306 304 305 303 302 303 306 309 305 301 301 301 302 302 302 304 303 302 301 297 300 305 301 299 300 298 298 300 301 301 300 298 296 302 303 297 297 297 297 299 300 302 305 306 303 299 299 301 303 304 300 297 298 297 298 298 296 295 295 296 296 295 295 295 295
307 307 307 308 307 308 308 307 306 306 305 305 305 305 304 304 305 305 314 324 312 303 304 304 303 304 303 303 303 304 304 302 302 302 300 302 302 301 302 300 301 300 295 303 310 301 298 301 299 298 300 301 300 299 297 297 301 300 296 296 297 297 299 300 305 307 304 304 303 300 298 302 308 304 298 297 296 297 299 297 296 295 295 296 295 295 295 295
307 307 307 307 307 308 307 307 307 306 305 306 305 305 305 304 303 307 319 318 305 303 304 303 304 303 302 303 302 301 301 301 301 301 300 301 302 301 302 299 299 299 297 302 307 300 297 299 298 298 299 299 300 298 295 297 300 298 295 296 297 298 300 301 304 307 306 308 306 300 298 302 307 304 298 296 297 297 298 297 296 295 295 295 295 295 295 295
306 307 306 307 307 307 307 307 307 306 307 307 306 306 304 306 313 317 318 313 304 302 303 303 304 301 302 306 304 300 300 300 300 300 300 300 300 300 300 299 299 301 301 301 302 300 297 297 296 297 297 297 297 297 294 295 297 296 296 299 300 300 301 301 302 305 309 311 305 298 298 301 305 305 300 297 298 298 298 298 296 295 295 295 295 295 295 295
306 306 306 307 307 306 307 307 307 307 307 307 308 307 304 309 325 331 313 305 304 304 303 303 301 300 303 306 304 301 301 300 298 300 302 300 299 299 299 301 301 307 312 306 303 302 298 300 299 296 296 295 296 298 296 295 296 297 300 302 302 303 303 303 307 309 311 311 302 297 298 299 303 308 303 299 299 297 296 297 296 295 295 295 295 295 295 295
306 306 306 307 306 307 307 306 308 307 306 309 308 307 311 314 321 321 309 305 306 305 304 302 300 300 303 304 302 300 302 302 298 298 300 299 298 297 297 299 299 308 314 306 303 304 300 300 298 296 297 295 298 303 302 301 299 298 302 304 308 312 309 309 313 311 311 308 299 296 299 299 302 306 302 299 299 296 294 296 296 295 295 295 295 295 295 295
305 305 305 306 306 306 307 306 308 306 306 310 307 308 324 329 314 306 307 308 303 300 300 301 300 300 303 306 304 300 300 301 300 298 297 298 300 298 296 295 294 302 306 302 304 307 305 302 299 299 299 295 297 303 304 303 301 299 301 303 309 313 311 312 310 304 306 306 298 294 298 302 303 303 301 298 297 296 295 295 296 295 295 295 295 295 295 294
304 305 305 305 306 305 306 307 307 307 307 308 307 311 320 320 309 304 307 306 300 298 300 300 302 302 303 305 301 299 301 300 299 299 299 302 305 303 300 297 295 298 302 304 303 304 308 307 301 300 299 296 296 297 297 298 299 299 298 299 304 305 304 307 309 306 305 304 299 296 298 304 304 300 298 297 295 295 296 295 295 296 295 295 295 295 295 294
304 305 304 305 306 304 306 307 306 309 306 306 315 323 317 310 308 308 307 302 299 302 301 299 304 306 307 306 300 297 300 299 299 300 302 303 303 301 300 298 296 295 300 305 301 299 305 304 299 297 296 295 297 295 294 297 299 298 297 301 303 300 300 301 300 300 300 300 303 302 300 301 300 297 294 294 295 295 295 295 295 295 295 295 295 295 295 295
303 304 304 305 305 304 306 306 306 309 305 311 329 327 312 306 304 305 305 301 300 303 302 303 307 308 310 310 306 301 299 298 300 303 303 299 298 299 298 298 296 294 298 303 301 300 305 303 299 298 296 295 296 295 294 296 299 300 300 302 297 294 299 300 295 293 295 301 305 302 300 300 298 297 296 294 296 296 294 295 295 295 295 295 295 295 295 295
303 304 304 305 304 305 306 305 307 308 304 315 331 315 301 299 298 299 300 299 299 300 304 308 305 304 308 309 307 306 302 298 301 307 303 299 299 299 298 298 295 293 295 298 299 297 301 305 301 298 298 296 294 295 295 294 296 302 302 298 293 294 298 300 300 300 300 305 305 299 299 300 299 299 299 296 297 298 295 294 294 295 296 295 296 295 295 295
303 304 304 304 304 305 305 305 307 308 306 316 323 309 298 298 296 295 297 297 297 300 307 309 302 300 305 308 305 303 303 303 305 307 303 301 303 299 296 298 295 293 293 295 299 296 295 305 304 297 299 297 293 296 299 296 295 298 297 294 295 300 301 300 302 304 304 304 304 301 298 297 298 300 301 299 299 300 298 294 293 295 296 295 295 295 295 295
303 304 304 304 304 304 305 307 306 307 312 318 319 307 299 298 296 295 297 297 297 300 305 305 301 301 302 304 304 301 302 305 304 304 301 302 303 297 295 296 295 295 294 294 299 296 293 302 306 299 296 295 296 298 301 301 298 296 297 296 298 300 299 298 297 299 302 304 303 302 302 302 301 301 301 301 300 301 300 297 294 295 296 295 295 295 295 295
303 304 304 303 304 305 305 306 305 309 315 313 308 303 298 297 297 295 297 297 296 299 302 301 301 303 302 300 300 299 301 304 302 302 302 300 300 297 294 294 295 295 294 294 296 295 294 299 304 304 298 296 299 298 298 300 299 299 301 300 300 299 297 297 295 294 299 304 303 301 304 307 303 299 300 301 299 297 297 296 294 295 296 295 295 295 295 295
303 303 304 303 304 305 304 307 304 303 308 303 299 300 298 297 297 295 296 297 296 297 298 299 300 302 303 302 299 298 302 305 302 302 301 299 300 299 294 293 294 294 294 297 298 296 296 298 301 305 304 301 299 294 292 294 295 297 300 299 299 298 298 301 299 294 294 298 299 299 302 305 300 296 297 298 295 293 293 293 294 295 295 295 295 295 295 294
303 303 303 303 305 304 305 309 298 295 304 303 298 299 299 297 296 296 296 296 296 296 296 298 298 300 302 301 300 300 303 305 303 301 300 298 299 299 295 293 293 293 294 297 296 293 295 297 300 305 302 297 294 290 289 291 291 293 295 295 296 296 299 303 302 299 295 292 293 295 298 303 299 293 293 293 292 293 294 293 294 294 295 295 295 295 295 295
302 303 303 303 305 303 305 309 301 297 301 299 294 296 297 296 296 296 296 296 296 296 297 298 297 299 299 297 298 301 301 301 301 299 299 299 298 296 294 293 294 294 294 296 295 292 295 298 302 307 304 296 292 289 288 288 290 294 295 293 295 295 297 300 297 296 296 295 296 297 300 306 300 291 291 293 293 294 295 294 294 294 295 295 295 295 295 295
302 303 304 304 304 305 306 310 311 306 300 296 295 296 296 296 295 296 296 297 296 296 298 299 297 297 296 294 298 299 297 299 301 297 298 299 298 295 293 293 294 294 294 296 295 294 296 299 301 307 310 306 302 299 296 293 293 296 296 293 293 293 294 295 293 293 296 296 297 300 305 308 301 293 293 294 293 294 295 295 294 294 294 295 295 295 295 295
302 303 303 304 304 304 305 305 308 307 301 300 300 297 297 297 295 295 296 296 296 295 297 298 296 295 294 293 296 296 294 297 299 297 296 298 297 294 293 293 293 294 294 294 294 294 295 297 299 306 311 309 309 308 305 300 297 296 295 292 293 294 295 296 295 296 299 296 293 298 305 305 299 296 296 294 293 294 294 295 295 295 295 295 295 295 295 295
302 304 303 304 304 303 302 300 301 304 303 305 303 298 298 300 296 294 295 295 296 295 296 296 295 295 296 295 299 300 296 295 296 297 298 299 298 294 292 294 293 294 295 294 293 294 296 296 297 303 307 306 307 305 300 298 297 297 296 295 295 294 293 295 297 298 299 295 294 297 299 299 297 297 296 296 295 294 294 294 295 295 296 295 295 295 295 295
302 303 302 304 305 303 301 299 299 301 301 305 304 299 300 301 297 295 295 295 296 295 295 295 294 297 299 299 301 303 299 296 297 297 297 297 296 293 292 293 293 294 296 295 293 294 298 298 295 297 300 300 300 299 295 294 296 296 296 297 296 293 292 294 297 297 295 295 299 299 294 295 298 296 296 296 295 294 293 294 294 295 295 295 295 295 295 295
303 302 299 302 305 303 302 301 299 297 297 301 302 298 300 302 299 299 297 295 295 296 296 297 296 298 300 298 300 302 299 299 299 297 297 297 295 295 294 292 292 294 294 294 292 293 297 298 294 294 299 299 297 295 293 293 294 294 295 295 295 294 293 295 295 294 294 296 300 298 294 295 296 295 295 295 294 293 293 294 294 294 295 295 295 295 294 294
302 302 299 301 302 299 299 300 298 298 298 300 302 300 301 304 301 298 296 295 297 296 296 299 300 298 296 296 301 305 302 301 301 298 299 299 296 297 298 296 293 292 293 293 291 291 295 298 295 292 297 299 295 291 290 291 293 294 294 294 294 294 293 294 294 293 293 294 295 295 294 294 294 294 294 294 294 294 294 294 294 295 295 295 295 294 294 295
301 302 300 301 300 297 298 297 298 302 302 301 304 301 299 303 303 297 295 296 299 297 295 299 301 297 293 295 302 305 300 299 300 299 299 300 298 298 299 298 295 293 292 293 291 290 293 297 295 292 297 301 296 291 292 292 293 294 294 292 292 293 293 292 292 292 292 293 293 292 293 292 293 293 293 294 294 294 293 294 295 295 296 295 294 294 295 295
301 301 301 302 301 297 298 297 297 305 306 303 304 302 299 302 301 297 296 295 297 298 296 298 299 296 293 296 301 300 296 296 298 297 296 297 298 297 296 296 296 297 296 293 292 293 293 295 296 294 300 303 297 294 295 292 291 293 295 295 293 292 293 293 292 292 293 293 293 293 294 295 295 294 293 294 295 294 294 295 295 295 296 295 295 295 295 295
300 301 301 303 303 298 297 296 297 303 305 300 299 299 300 300 297 297 300 297 294 297 296 294 296 298 299 299 299 298 296 295 296 296 295 295 296 295 295 294 294 298 298 294 293 292 293 297 297 295 301 305 299 297 295 294 299 303 301 299 297 293 293 293 292 292 292 293 294 296 298 298 295 294 294 295 294 294 295 295 295 295 295 295 295 295 295 295
Wind_Speed
9 10 10 9 9 9 9 9 9 9 10 12 12 11 10 12 14 15 16 18 18 16 16 19 21 20 13 6 11 9 28 33 37 44 45 39 33 27 25 24 20 17 16 10 8 9 11 13 13 14 17 19 19 16 14 14 13 10 6 5 4 1 1 2 3 3 4 3 1 4 6 7 4 4 7 7 9 13 15 15 13 12 12 13 13 11 9 8
8 9 9 9 9 8 9 9 9 10 12 14 14 13 12 12 14 15 17 18 18 16 17 19 21 21 14 0 10 7 21 30 38 44 40 33 31 29 26 24 20 17 17 13 11 11 13 14 12 12 18 21 17 15 15 14 15 10 3 5 3 4 2 2 5 4 4 7 7 7 7 7 6 4 4 2 5 9 11 11 12 14 14 13 12 10 9 9
8 8 8 8 8 8 9 8 9 10 13 15 15 15 15 14 15 16 18 19 17 14 17 20 20 20 15 8 9 7 11 25 39 40 35 33 32 31 26 23 21 17 16 14 14 14 15 17 14 15 24 23 17 19 19 14 12 8 5 5 0 5 3 1 5 8 10 14 12 9 8 9 7 4 5 7 7 7 6 6 8 12 14 12 12 10 9 9
8 8 7 7 7 8 8 9 9 10 12 13 14 15 15 15 15 17 18 19 18 14 15 19 19 19 16 11 7 3 4 17 32 32 31 33 32 31 27 22 21 18 13 11 12 14 17 18 16 20 26 19 17 23 19 13 9 5 5 5 5 7 5 4 9 13 13 13 13 10 9 10 7 5 7 10 7 4 2 5 8 13 15 13 12 9 8 7
9 8 7 7 7 7 8 8 9 10 10 10 11 12 13 13 14 16 19 20 20 15 13 16 18 20 20 14 7 4 2 6 20 26 28 32 31 29 27 22 20 18 12 9 9 10 13 15 17 21 22 13 16 18 13 13 13 8 7 7 6 6 4 5 9 12 11 11 11 9 7 6 6 7 5 5 3 2 2 4 8 12 13 11 10 9 7 6
9 8 7 7 7 8 8 9 9 10 10 10 10 10 11 11 11 14 17 20 21 19 13 10 13 18 25 25 18 14 12 4 15 24 26 29 30 26 25 22 16 14 11 8 7 8 11 16 19 17 14 11 14 11 9 13 12 8 7 10 9 6 6 5 6 8 7 9 9 6 6 6 6 9 9 8 8 7 8 9 11 12 11 10 9 7 6 4
10 9 8 8 8 8 8 9 9 10 10 11 10 10 10 10 9 10 13 18 20 22 16 8 5 5 12 18 21 28 28 15 17 21 22 25 27 24 22 21 15 10 10 12 12 14 18 23 26 20 12 10 11 10 18 26 21 14 6 8 12 12 11 6 6 7 7 11 10 7 7 6 7 6 9 13 12 11 11 11 11 11 10 9 7 5 3 1
10 10 9 8 8 8 8 8 9 10 10 10 10 10 11 12 11 8 10 15 18 22 22 16 7 4 5 1 14 31 31 22 20 20 19 22 24 22 19 20 21 16 18 21 17 18 21 24 25 21 14 8 7 7 15 24 21 13 5 6 11 14 15 13 12 12 13 14 10 10 11 10 10 8 8 10 10 11 12 11 10 10 8 6 5 4 3 2
10 9 8 7 7 7 8 9 10 10 10 10 9 9 10 13 12 8 9 13 16 18 20 22 17 7 3 4 12 24 23 21 20 18 17 19 20 20 20 22 23 21 26 27 23 22 22 23 22 20 16 11 10 7 8 11 8 7 9 10 12 12 12 13 13 12 12 10 6 10 11 9 10 8 6 7 10 11 10 9 8 6 6 4 4 4 3 3
11 10 8 8 8 8 9 10 11 12 12 12 11 10 9 12 13 9 9 13 18 17 18 22 23 21 14 14 22 17 15 19 18 15 15 18 17 16 21 25 22 19 23 25 27 29 29 28 26 27 24 17 17 15 15 13 9 13 18 18 17 14 11 10 10 9 6 6 7 6 4 2 4 3 2 6 9 9 8 7 6 5 5 4 4 3 2 2
11 11 9 9 9 9 10 12 12 13 13 13 13 12 9 11 13 9 8 10 15 19 20 19 21 25 26 29 31 17 15 20 16 15 13 16 17 15 20 25 25 23 22 24 25 25 26 24 21 22 19 18 20 21 21 18 17 18 17 16 15 15 17 15 10 8 5 4 7 5 2 2 3 3 1 8 9 7 5 4 5 5 4 5 4 3 3 2
9 11 10 9 9 10 11 12 13 13 14 14 14 13 9 10 14 10 8 8 7 10 16 21 21 21 29 38 33 19 18 19 14 13 12 13 18 17 19 20 24 27 25 27 26 21 18 13 14 16 13 14 14 12 14 14 15 12 8 8 6 9 14 18 15 11 6 2 4 4 3 5 4 5 2 9 10 6 4 3 4 4 3 3 3 4 4 4
9 9 9 9 9 9 10 11 11 12 16 18 16 13 8 9 14 11 8 9 9 7 7 14 21 24 32 33 27 19 16 16 12 9 9 12 16 16 17 17 20 25 26 31 31 27 24 20 24 26 20 15 8 9 12 8 10 6 5 6 4 6 7 14 19 17 9 3 5 3 2 4 6 7 4 10 8 6 4 3 3 2 1 2 3 4 5 6
9 8 7 7 7 7 9 9 9 12 16 19 17 13 7 7 12 14 11 10 12 13 11 7 9 21 33 26 20 21 15 13 13 11 11 10 11 14 14 14 16 21 24 29 30 29 28 26 31 31 23 18 13 13 9 5 7 2 4 4 3 4 3 7 16 20 10 6 11 4 2 3 6 8 3 8 6 6 5 4 3 1 1 2 4 5 7 8
9 8 7 7 7 7 7 6 6 9 13 18 18 13 8 5 7 13 16 13 12 13 14 14 8 12 24 21 18 21 16 13 15 17 17 12 10 12 14 14 15 17 19 21 21 22 20 19 25 24 15 13 11 8 4 4 5 3 3 3 4 3 2 5 11 19 9 4 13 7 2 2 3 9 3 7 6 6 5 4 3 2 3 4 5 6 8 9
9 8 8 7 7 6 6 5 4 6 7 13 20 20 14 5 4 7 11 13 16 14 12 17 19 19 17 12 16 23 23 21 18 15 17 17 12 9 12 14 14 13 13 14 13 12 15 18 24 25 17 10 5 4 4 4 4 5 4 2 3 2 3 4 5 20 15 4 12 10 2 1 5 12 6 7 6 7 6 4 4 4 5 6 7 9 10 11
8 8 8 7 7 6 6 5 4 5 4 6 17 25 25 15 5 4 4 4 8 12 15 14 14 19 19 13 16 25 28 24 19 12 13 17 14 7 6 8 11 12 12 13 11 10 16 19 16 15 16 11 5 3 4 5 4 4 4 2 1 1 2 4 3 15 19 8 9 8 5 2 8 13 4 7 6 8 7 5 5 7 8 9 10 11 12 13
9 8 8 8 8 7 7 6 6 5 4 2 7 14 23 25 16 10 7 5 4 6 15 17 10 8 13 19 17 19 25 24 21 15 10 12 15 11 6 4 3 6 8 9 11 14 16 14 7 3 8 10 7 7 4 2 1 1 3 2 2 3 1 4 3 8 12 8 9 8 6 6 8 11 8 1 3 5 5 6 7 9 9 11 13 14 15 16
10 9 9 8 8 8 8 7 7 6 5 3 1 2 7 17 23 24 24 23 21 11 7 16 17 7 4 20 17 13 23 26 24 19 10 8 14 13 12 11 9 10 9 7 13 18 13 9 8 4 6 8 6 5 1 1 3 4 3 4 2 3 1 2 2 4 6 6 9 8 4 7 8 10 10 6 3 3 5 7 8 10 11 12 14 15 17 18
11 10 9 9 8 8 8 7 7 6 5 4 2 3 3 5 12 21 33 39 33 22 12 14 17 11 7 20 21 13 20 26 25 24 17 9 8 10 12 13 18 22 14 4 7 14 14 10 7 4 4 6 6 5 3 2 2 5 4 4 3 2 2 3 2 6 6 4 6 6 3 7 8 8 11 8 6 7 9 9 11 12 12 12 13 14 15 16
11 11 10 9 8 8 8 7 5 4 5 5 3 2 3 3 5 9 24 31 25 22 23 21 19 14 11 19 26 19 18 25 27 28 24 16 10 9 14 14 14 15 10 5 3 7 13 11 4 4 5 8 7 5 2 2 3 4 4 3 3 3 2 3 2 7 8 5 4 6 5 8 7 6 11 12 8 9 11 11 13 14 15 16 16 15 13 13
12 11 11 10 9 8 8 7 6 5 8 8 7 9 10 11 13 14 18 17 16 19 21 22 23 21 14 13 22 25 24 26 28 30 26 24 22 16 18 20 12 7 8 6 3 4 10 8 6 8 6 6 4 4 3 5 5 4 3 3 2 3 2 3 2 5 7 5 1 4 6 6 6 5 10 13 8 8 10 11 13 16 19 21 22 22 19 15
13 12 12 11 9 9 9 8 8 8 9 8 8 14 17 17 16 16 17 13 12 16 17 20 24 25 21 13 14 24 31 25 22 28 26 22 24 21 21 18 9 7 9 8 6 6 6 3 8 8 2 1 4 8 6 5 5 4 4 4 0 2 2 1 2 6 6 3 3 2 5 4 5 5 7 10 7 7 10 11 13 16 19 21 21 22 21 19
12 12 12 12 10 9 10 10 9 7 8 7 8 11 13 13 13 12 11 9 7 11 15 17 21 24 23 17 11 15 26 24 19 25 26 19 13 12 13 10 6 7 8 9 13 11 5 3 8 6 4 4 4 8 8 5 4 3 2 3 2 1 1 3 3 5 4 3 3 4 3 3 3 4 5 7 8 9 11 11 13 15 16 17 18 18 18 18
12 12 12 12 10 9 9 9 9 8 8 6 6 7 8 9 8 5 5 6 4 8 12 12 15 19 21 19 10 5 13 21 23 22 22 20 11 5 7 6 5 4 1 5 11 10 5 4 6 3 5 6 5 6 6 3 2 3 1 2 3 2 1 4 4 3 3 3 2 3 3 3 3 3 3 5 6 7 10 11 12 11 12 14 16 17 16 16
11 11 11 11 11 10 8 8 9 8 7 5 4 4 4 6 4 1 2 5 3 7 10 9 10 13 18 21 11 2 5 11 18 20 18 19 14 6 5 6 5 3 3 4 5 4 3 6 6 4 4 7 6 3 2 1 2 2 1 1 2 1 2 3 2 1 3 1 2 2 3 3 3 1 3 4 5 6 7 9 9 9 10 12 13 13 13 12
11 11 11 11 11 11 9 9 9 7 5 4 3 2 2 3 3 1 1 5 4 5 6 7 7 9 13 19 14 4 2 6 9 18 18 17 16 11 7 4 4 3 2 3 4 2 2 7 8 6 6 6 5 3 1 2 3 1 1 1 1 2 4 3 3 3 1 1 2 3 3 1 2 2 4 3 3 5 6 7 8 9 9 10 10 11 10 10
10 11 11 10 11 10 10 10 9 8 7 4 3 1 1 1 3 2 3 4 3 3 4 4 4 7 8 15 20 13 6 7 5 13 17 14 15 16 13 6 4 3 2 4 3 1 1 5 6 6 7 5 2 3 3 2 1 1 0 0 1 3 4 3 4 3 1 2 2 5 4 2 3 4 3 2 1 4 5 6 7 8 8 8 10 11 11 12
10 10 11 10 11 11 11 11 9 8 8 6 4 1 1 2 3 1 5 3 2 2 3 4 3 8 8 9 19 18 13 12 8 11 16 13 11 13 12 7 7 9 10 9 6 1 1 2 2 3 4 3 3 6 4 3 2 2 3 3 2 3 2 2 4 3 2 4 0 5 5 2 3 4 2 1 1 4 4 5 6 7 8 8 9 12 13 12
9 9 10 10 11 12 10 10 10 9 9 8 5 1 4 4 4 4 3 1 1 2 3 5 4 9 11 6 11 16 12 11 11 13 16 17 15 15 11 6 7 7 8 10 7 1 1 1 1 3 3 4 5 6 3 4 4 1 4 4 3 3 3 2 2 3 4 3 2 4 3 3 1 4 3 2 3 4 3 3 6 5 8 8 8 12 14 13
9 9 10 10 10 12 11 10 11 10 10 8 4 3 5 3 4 6 2 1 1 3 4 5 4 7 9 4 5 11 8 9 15 14 13 14 16 18 12 5 6 5 4 6 5 3 4 3 2 1 5 8 3 2 2 3 5 3 4 3 2 3 4 3 5 4 4 2 5 4 2 4 1 4 3 4 4 4 5 4 5 6 8 10 10 12 14 14
9 9 10 11 11 12 12 12 12 11 11 8 2 4 4 2 3 3 1 3 2 3 3 3 4 5 5 4 4 6 4 6 13 11 6 6 8 10 8 3 3 4 4 5 3 4 4 2 4 3 5 13 7 1 3 4 7 5 3 5 4 2 4 3 4 3 0 3 3 1 2 2 3 5 4 4 6 5 6 8 7 7 8 10 12 13 13 14
9 9 10 11 12 13 13 12 13 11 11 8 2 3 5 4 1 1 2 3 2 2 1 2 3 2 2 4 4 5 4 3 7 7 3 3 4 3 3 5 4 1 1 3 2 4 3 3 7 3 4 12 9 3 3 4 6 7 4 4 3 2 4 3 3 2 2 4 2 2 2 1 4 3 4 6 6 5 5 8 9 9 8 9 13 13 13 14
8 9 9 10 11 13 13 13 13 12 12 7 2 2 5 3 1 1 1 2 1 1 2 1 3 3 3 4 2 3 3 3 4 5 4 4 5 4 3 7 8 3 2 3 2 3 3 3 6 4 3 8 7 3 1 0 3 3 1 4 3 3 3 2 3 1 3 5 4 4 1 2 2 2 4 7 6 4 4 6 9 10 9 9 13 15 13 14
8 9 8 9 11 12 12 12 12 12 12 7 3 5 3 1 2 2 1 3 1 1 1 1 3 4 4 3 2 1 2 2 4 5 5 4 3 3 3 4 7 4 2 3 1 1 3 2 4 3 3 4 4 2 1 3 1 1 1 4 2 2 3 1 3 4 2 2 4 3 1 3 3 2 2 4 6 6 6 7 8 9 10 11 14 17 14 15
8 9 8 9 11 12 12 12 11 12 11 5 5 5 2 2 1 2 1 1 0 1 0 2 3 5 3 4 3 3 1 1 3 3 4 3 0 1 1 2 4 4 3 3 1 1 2 2 4 3 3 4 5 3 2 3 1 1 3 2 1 3 5 3 1 1 3 2 3 2 2 4 3 2 3 3 5 7 8 9 9 9 10 12 16 18 17 16
8 8 8 8 11 12 12 12 10 10 9 5 6 3 2 1 0 1 1 1 1 2 3 1 2 2 1 2 3 5 3 1 2 3 2 2 1 2 2 2 2 4 3 2 1 1 1 2 4 2 2 4 6 3 3 6 3 1 2 1 1 3 4 4 1 3 5 1 3 3 3 5 2 2 4 4 5 7 8 11 12 11 11 14 18 20 20 18
9 8 7 8 11 11 11 11 10 8 6 6 6 2 2 1 1 0 1 2 1 2 4 3 0 0 2 0 2 4 4 3 3 4 2 1 2 1 2 2 2 5 5 2 2 1 1 1 5 1 1 5 7 3 2 6 7 6 5 3 2 3 1 2 2 1 3 2 5 5 4 3 2 2 3 3 5 7 7 8 10 11 13 17 21 23 23 21
9 7 6 9 11 11 11 10 8 5 5 6 3 2 1 1 2 2 2 2 1 3 3 3 1 1 2 2 1 3 3 3 2 2 2 1 1 1 1 1 1 5 6 3 2 0 1 1 3 3 1 4 5 4 1 3 6 6 5 2 2 3 2 1 2 1 0 1 3 5 5 3 4 4 4 5 6 6 6 5 7 11 15 21 23 25 26 24
9 6 5 9 10 11 10 7 6 6 6 4 3 2 1 1 2 3 2 2 2 2 1 3 2 2 1 1 0 1 2 2 2 2 1 1 1 1 2 1 1 4 5 4 4 1 1 2 3 5 4 2 2 2 1 1 2 2 3 4 3 2 1 0 1 2 2 1 1 2 4 5 5 3 5 6 6 6 7 6 8 12 18 24 26 26 26 25
8 4 5 9 9 9 8 6 9 8 5 2 2 2 1 2 3 3 3 3 3 3 3 3 3 3 2 1 0 0 2 2 2 2 1 0 1 0 2 3 2 4 3 3 3 1 1 1 1 4 3 1 1 1 1 1 1 1 1 2 1 1 3 2 2 2 1 2 3 2 3 8 5 3 5 6 6 7 7 7 10 15 21 26 27 26 26 25
5 3 5 8 8 7 6 7 8 6 4 3 2 2 2 3 3 3 3 3 3 3 3 3 2 2 3 2 1 1 2 2 1 2 0 1 1 1 1 3 3 3 2 1 1 1 1 3 1 3 2 1 3 2 2 2 1 2 1 1 3 3 4 4 2 3 1 1 0 2 1 7 5 3 5 7 7 7 6 8 12 18 24 27 27 26 26 25
4 3 5 7 7 5 4 5 5 5 3 2 3 4 3 3 2 2 2 2 2 2 3 2 1 2 1 1 2 2 1 1 1 1 1 2 1 1 1 2 3 3 2 1 1 0 1 3 2 3 3 3 4 3 2 4 4 2 1 1 3 2 3 4 4 2 1 1 1 2 2 6 6 4 5 6 6 7 9 13 16 20 25 28 27 27 27 26
4 3 4 8 7 3 2 3 1 1 1 1 4 4 3 3 3 2 1 1 2 1 2 1 0 2 2 2 3 2 1 1 1 1 1 1 1 0 0 2 2 2 2 1 1 0 1 1 2 3 5 6 6 5 5 4 2 1 2 1 2 4 6 4 2 2 1 4 5 3 4 7 5 3 3 5 7 10 16 18 19 21 25 28 28 29 28 28
2 1 4 10 9 2 5 5 6 5 2 2 4 3 3 4 4 3 2 2 3 2 2 2 1 3 3 2 3 2 1 1 1 0 1 0 1 1 0 1 2 2 3 3 1 1 1 1 2 3 2 2 3 4 4 3 1 1 1 2 3 4 6 3 1 3 2 3 5 4 5 6 6 5 6 7 7 11 18 23 24 25 27 29 30 29 28 28
2 1 2 7 9 9 11 8 8 8 5 4 4 1 2 2 2 3 4 3 3 4 3 3 3 3 3 3 3 3 3 3 2 2 1 1 2 1 1 1 2 3 4 2 2 2 2 0 1 5 5 4 4 5 4 0 1 3 2 3 4 4 5 5 4 2 4 2 3 7 6 8 13 11 7 8 8 9 17 23 26 28 29 30 30 28 27 28
2 1 1 3 6 10 12 9 8 9 6 5 3 1 3 2 1 2 2 1 2 3 3 2 1 1 1 2 3 2 1 2 3 2 2 2 2 2 2 1 2 2 2 0 2 3 3 1 1 4 5 6 6 6 3 1 3 6 4 4 5 5 5 6 4 5 4 3 4 7 4 4 13 12 8 10 9 10 16 23 27 29 29 30 29 28 28 29
1 2 2 2 1 3 5 5 7 12 8 4 3 2 3 3 2 2 1 1 2 2 2 1 1 1 2 3 3 2 1 2 2 0 1 1 2 3 3 2 2 1 2 2 1 3 4 1 2 2 4 8 8 7 4 3 5 5 5 7 6 7 8 9 8 7 7 5 8 5 2 6 13 14 12 15 15 15 21 26 27 27 28 29 28 27 28 30
4 5 4 4 3 4 6 6 9 13 9 4 3 2 3 5 4 3 2 2 1 0 1 0 3 1 2 2 3 3 2 1 1 2 2 2 1 1 1 1 2 2 2 2 2 2 3 1 2 2 4 8 7 7 4 3 3 5 7 9 8 8 11 11 10 7 8 11 14 11 10 13 16 16 17 23 26 24 25 26 25 26 27 27 26 28 30 30
4 5 5 8 8 9 8 6 6 8 5 3 2 1 3 6 5 3 2 3 1 1 2 2 2 3 3 3 4 2 3 4 2 1 4 4 0 2 2 1 2 2 1 1 2 2 1 2 0 3 3 7 5 5 4 2 3 7 9 8 7 8 9 9 8 5 6 11 14 12 12 15 18 19 20 25 25 21 21 24 25 26 26 25 28 31 30 28
5 5 6 9 7 5 4 3 3 4 2 2 2 3 3 4 6 5 3 1 1 2 3 5 7 5 3 2 2 1 2 4 5 3 5 3 0 3 2 1 3 3 1 1 1 1 1 1 2 5 4 6 4 5 7 5 4 7 11 8 8 7 6 7 6 5 7 8 6 5 7 9 11 12 12 17 21 19 22 24 24 25 26 28 31 31 28 26
6 6 8 7 4 2 3 2 3 4 2 1 2 4 3 4 7 8 4 1 1 2 3 7 9 6 3 0 3 1 4 6 7 6 5 3 3 4 4 2 4 4 3 3 1 1 2 2 1 3 2 5 6 7 9 8 4 3 6 5 9 7 5 5 5 7 9 6 3 4 7 7 7 7 6 12 18 21 24 25 24 26 28 31 30 27 25 25
Wind_Direction
44 42 41 42 43 43 43 45 46 44 37 30 30 36 40 32 23 21 19 15 16 17 13 6 355 348 342 241 198 54 29 27 33 38 37 28 18 13 7 12 25 32 29 41 72 72 82 85 86 104 108 95 78 73 75 67 65 71 75 75 93 139 102 182 196 154 137 148 139 58 98 122 107 86 91 71 59 77 78 75 84 97 108 114 120 122 114 112
43 41 41 43 44 44 44 45 49 48 43 41 44 46 44 36 28 28 24 17 18 18 15 9 2 2 6 155 178 92 30 24 35 39 33 25 20 15 9 15 27 36 38 55 77 71 81 85 91 109 97 80 66 73 78 60 57 63 93 85 91 194 178 210 204 184 140 136 130 100 109 114 113 131 116 90 61 82 83 75 94 104 107 117 123 126 128 133
42 40 40 43 43 43 42 45 52 53 50 51 53 53 49 44 40 36 29 23 22 22 20 15 12 17 33 82 126 89 23 20 30 29 22 23 21 15 11 13 24 37 40 55 76 75 85 93 97 99 86 73 60 73 72 52 50 47 76 82 182 185 130 142 166 152 141 138 130 111 109 103 110 133 125 130 101 79 102 112 119 118 124 133 132 137 142 144
37 36 36 38 37 36 37 45 55 53 50 52 52 50 46 44 44 38 33 30 28 29 26 23 23 35 54 85 100 47 349 24 22 14 15 21 20 17 15 11 18 33 43 59 76 81 87 95 103 92 80 63 49 66 56 34 59 48 57 98 174 166 107 93 129 129 133 131 124 121 107 88 93 112 134 137 103 53 141 156 154 141 140 140 138 142 142 142
32 31 32 31 33 32 39 50 52 45 41 43 42 39 39 41 44 41 36 32 31 33 35 33 37 51 62 65 56 350 295 21 7 8 16 20 20 18 19 17 14 22 40 72 78 83 86 95 103 82 68 46 38 59 37 27 74 68 38 79 117 150 108 106 127 123 128 123 114 109 89 89 89 70 93 133 86 51 103 132 144 134 132 132 132 133 130 132
30 30 31 31 35 38 46 51 44 39 34 34 34 32 34 37 44 45 40 34 32 32 35 45 52 63 68 63 58 59 79 60 354 9 17 18 21 21 23 24 23 22 35 81 95 93 89 90 95 74 60 55 39 49 36 36 84 95 42 56 68 90 96 106 124 117 123 106 89 82 85 99 90 57 55 75 78 92 102 112 121 113 111 114 115 117 122 130
30 29 31 34 40 46 50 48 39 37 35 35 35 35 37 35 39 42 42 39 34 33 32 41 61 79 79 64 54 61 66 46 11 18 18 18 22 27 31 32 45 56 62 87 95 95 91 87 86 76 72 72 48 55 66 63 77 95 73 45 61 75 77 83 104 103 97 84 74 86 93 63 65 73 66 77 89 104 109 109 108 103 104 103 100 105 111 116
31 30 35 41 47 53 51 45 38 35 32 33 36 42 43 35 35 40 48 46 41 40 35 33 25 271 227 317 37 49 44 22 19 22 18 21 25 33 41 46 56 68 74 75 82 90 88 82 81 78 73 68 66 64 72 69 59 63 88 68 72 76 74 84 93 92 88 85 85 82 79 64 71 88 79 84 101 108 110 108 102 98 96 90 79 76 62 42
36 36 44 53 57 57 52 47 41 36 31 29 32 41 40 32 31 44 59 54 49 49 46 45 43 40 174 186 54 46 26 15 22 19 17 22 26 36 44 52 56 62 70 71 77 85 84 83 83 89 90 80 75 53 58 78 44 47 99 92 84 81 79 88 85 88 92 81 76 74 77 83 76 72 81 104 115 114 117 111 98 86 80 77 60 57 59 59
40 41 53 64 64 63 57 52 45 39 33 28 27 26 31 31 29 44 72 67 59 55 53 54 56 66 95 100 72 55 18 26 28 14 17 21 25 39 44 48 50 56 69 74 79 84 87 89 89 91 90 79 71 59 62 87 111 105 103 93 84 78 69 73 72 72 80 54 50 86 111 90 51 47 111 148 136 128 130 113 94 80 68 69 64 68 76 72
42 46 59 69 70 69 61 52 41 34 27 23 24 20 32 40 32 47 79 78 67 58 52 53 57 64 74 73 66 51 25 35 27 13 15 18 28 39 44 48 49 53 68 76 79 87 95 96 93 88 81 81 79 72 77 97 116 108 101 91 71 65 53 38 38 34 36 55 50 82 132 354 17 29 128 168 156 143 139 115 98 91 74 71 69 61 59 46
45 47 57 67 71 67 56 42 30 23 17 19 21 19 41 55 41 55 83 81 71 56 51 51 53 58 64 61 55 41 34 40 34 21 14 21 35 42 49 51 53 57 64 73 76 82 95 103 102 97 95 101 93 79 93 106 108 96 86 87 33 41 44 21 17 16 23 80 25 35 21 352 353 3 100 161 160 154 142 125 109 100 75 61 50 32 21 2
43 43 49 56 57 51 41 31 24 20 17 17 17 20 52 74 51 58 88 75 58 50 45 54 55 56 63 60 47 42 42 43 48 44 29 35 41 45 55 57 61 66 68 76 80 81 86 95 98 98 97 98 99 104 116 106 91 78 43 75 11 16 25 14 21 13 19 47 346 2 31 327 323 359 111 160 167 165 156 150 132 111 66 16 1 357 354 347
37 35 34 32 31 28 24 25 26 25 24 23 19 24 55 94 67 63 80 75 60 55 47 57 59 53 63 65 46 44 46 46 57 59 52 54 52 50 60 70 73 76 78 80 84 85 86 91 90 87 82 83 102 111 105 55 62 55 356 39 37 47 338 356 26 18 20 15 356 24 122 321 328 9 96 171 178 175 174 176 171 181 263 328 328 337 340 340
31 28 25 18 15 13 15 27 26 19 29 33 30 35 53 101 90 69 75 73 64 62 55 60 70 60 65 63 42 40 45 52 52 47 46 51 63 66 71 80 86 88 90 86 83 84 87 92 81 71 65 76 100 101 55 15 35 28 32 9 360 68 310 322 30 28 20 315 4 35 131 321 345 8 6 191 183 189 199 205 211 259 276 308 317 323 330 333
23 20 19 12 7 5 6 14 5 357 18 43 44 43 45 72 120 87 87 75 61 57 57 62 61 62 63 45 28 33 38 41 40 38 40 39 48 72 77 77 84 93 97 90 87 83 81 83 69 54 50 56 60 62 51 32 7 9 70 92 341 29 2 331 31 26 18 341 9 26 88 291 308 346 335 202 195 205 221 245 251 289 294 304 310 313 320 325
15 13 12 7 2 359 357 357 349 348 353 57 57 51 48 51 73 111 99 62 57 48 49 60 60 60 56 31 22 28 31 34 33 39 44 41 42 60 99 96 86 90 99 93 86 77 71 71 67 53 50 48 20 46 68 28 357 350 31 94 352 342 14 358 337 9 16 37 24 17 57 19 313 342 356 197 220 226 238 278 289 301 296 300 302 303 311 314
9 7 6 5 1 358 358 357 353 357 355 34 75 64 56 56 63 84 86 63 82 57 44 45 49 73 44 21 19 20 27 32 31 36 42 46 52 60 90 109 105 111 105 80 48 48 60 59 68 95 39 32 17 36 70 47 38 315 22 79 356 338 51 22 340 347 8 40 35 25 35 3 336 1 31 126 249 249 276 313 322 322 312 307 304 302 304 302
7 5 5 5 2 2 1 358 358 359 1 1 99 131 70 64 66 70 72 68 66 67 40 35 47 105 49 16 22 28 34 36 33 36 41 53 60 65 77 81 87 94 84 55 25 32 50 47 42 51 9 0 352 6 89 163 122 143 121 116 65 360 317 318 287 329 6 43 30 28 24 360 0 7 17 27 11 349 343 345 350 347 338 326 313 306 302 297
8 8 7 7 6 8 6 4 3 359 4 13 59 167 184 82 63 58 61 64 67 70 72 57 60 93 75 27 30 42 44 42 38 39 39 43 60 61 63 70 72 67 56 35 19 29 53 62 38 25 318 303 302 303 251 216 126 125 111 97 81 46 318 288 272 334 359 76 22 5 23 19 17 358 3 25 33 19 15 13 12 9 1 350 335 322 309 298
14 13 11 14 13 16 17 16 18 21 38 44 53 132 182 118 94 76 68 68 70 71 65 60 59 61 54 32 32 38 45 44 44 44 39 40 59 52 43 51 59 49 18 4 47 32 55 63 19 335 279 269 289 295 198 132 95 96 106 108 67 54 312 277 242 329 356 73 14 350 41 33 17 359 13 34 40 24 26 29 27 29 30 25 18 8 350 326
19 18 16 19 20 25 26 26 39 57 59 57 72 101 110 106 106 99 89 83 70 63 56 51 50 45 44 40 33 33 40 38 34 37 37 46 61 64 55 57 61 41 0 12 59 37 52 51 333 324 289 257 314 357 81 82 80 70 72 111 58 12 321 290 262 331 2 70 32 1 56 38 355 353 20 32 38 33 39 43 38 38 40 37 33 28 24 16
20 22 22 23 26 31 30 34 47 57 62 64 91 106 105 105 105 95 91 96 74 53 44 40 39 35 34 35 27 31 42 39 20 22 26 40 60 65 66 65 66 62 36 39 69 66 66 10 320 331 339 144 27 24 47 52 60 57 51 87 72 341 19 307 304 341 353 67 124 84 68 35 348 352 13 24 34 40 43 48 47 46 45 41 37 33 30 30
19 23 25 25 29 33 33 40 45 54 68 76 97 111 114 110 109 100 88 96 84 41 33 32 29 28 24 21 18 32 46 44 22 17 21 31 57 64 67 72 68 64 54 62 76 82 99 311 320 344 44 82 58 33 38 37 33 19 46 115 159 64 64 240 283 341 347 29 88 97 49 351 354 6 346 1 25 36 38 46 51 52 51 45 40 36 32 29
20 22 26 27 30 34 37 43 49 60 67 75 98 108 123 132 119 93 70 85 75 12 17 23 22 22 15 12 20 50 54 44 28 17 20 30 48 83 72 60 56 58 83 83 79 85 85 355 349 20 36 47 64 45 23 18 29 346 310 138 130 128 229 260 290 357 42 28 11 76 48 309 321 19 308 320 4 11 18 33 41 46 48 44 40 34 28 24
21 23 25 28 32 34 38 42 46 54 59 66 94 102 130 167 168 32 37 71 36 340 360 12 11 15 11 8 6 102 69 34 24 22 27 32 37 90 84 27 49 94 173 134 88 89 59 17 29 63 53 43 50 51 359 50 76 14 281 130 68 126 206 231 217 103 102 80 337 56 92 267 299 6 261 301 344 334 350 11 20 28 32 35 33 27 20 14
20 23 23 26 31 34 39 42 42 44 50 57 62 88 158 191 194 226 19 46 17 334 355 360 3 15 17 14 20 94 56 340 7 22 31 40 41 75 88 15 42 65 209 145 70 47 19 11 20 39 52 50 39 13 298 116 100 38 246 223 324 172 176 185 132 99 120 148 26 26 94 165 277 241 254 300 319 317 332 338 356 18 24 24 17 9 6 360
16 18 20 23 27 32 38 38 37 38 38 33 27 46 187 178 184 183 89 64 346 336 6 352 11 23 27 34 43 69 52 4 19 11 22 45 45 64 78 63 91 61 3 123 110 348 7 14 12 29 35 32 21 302 273 154 127 278 216 147 197 152 159 154 104 97 58 79 26 346 37 85 276 268 308 353 268 301 311 295 326 357 3 7 2 353 350 347
12 14 15 17 21 25 30 31 29 28 24 11 6 2 197 154 170 116 81 97 318 352 14 347 354 359 4 41 42 45 41 35 36 8 24 50 45 62 84 77 85 72 47 71 116 162 42 28 3 56 42 354 278 280 261 167 292 290 110 80 66 67 77 90 84 104 52 54 48 322 15 61 285 279 303 9 233 263 273 276 303 337 349 351 352 349 344 340
9 11 12 12 16 19 23 24 22 21 16 7 2 71 133 127 116 68 56 187 341 343 335 352 348 349 360 33 29 25 33 30 17 15 35 51 49 59 84 81 63 73 53 53 77 77 4 127 22 75 42 307 271 286 261 205 292 332 101 56 38 23 25 53 34 85 64 12 262 291 3 90 313 284 223 207 223 209 210 283 299 320 345 342 339 347 345 339
8 9 9 9 11 15 16 16 16 15 11 7 10 123 130 108 77 88 90 258 352 342 354 13 4 6 19 54 23 7 19 18 9 18 32 36 37 37 42 37 18 35 38 27 33 3 14 49 2 10 9 348 318 303 284 252 329 34 115 69 63 331 1 26 351 37 67 312 250 266 334 111 165 271 240 235 250 211 187 225 273 302 327 333 330 336 342 339
7 6 5 6 9 9 9 8 9 8 4 9 43 152 136 47 23 93 283 322 347 331 10 11 352 17 20 39 34 356 356 10 10 24 32 21 33 28 27 28 356 18 14 356 360 2 12 3 323 298 11 13 17 354 338 338 1 28 72 54 60 345 4 23 334 6 100 249 221 267 358 112 222 248 230 230 243 238 228 232 253 288 311 332 336 329 332 337
4 6 4 4 5 3 3 3 2 1 359 10 102 150 90 69 30 219 290 339 4 330 20 8 352 24 7 24 24 347 4 1 356 21 29 31 54 32 26 36 21 32 7 2 7 4 350 300 342 4 6 12 28 52 5 343 358 18 44 58 76 68 35 339 296 337 301 274 276 344 351 274 282 271 212 208 220 233 254 257 261 276 293 324 339 331 327 336
359 4 2 1 2 357 357 359 357 357 356 4 108 115 58 57 224 149 309 276 244 346 22 16 360 23 37 49 350 311 43 26 351 22 13 31 49 4 352 17 19 45 80 52 58 33 41 309 349 24 338 357 29 72 69 80 8 5 128 113 101 114 87 299 257 219 290 288 304 326 343 202 270 287 220 223 235 244 268 276 270 272 274 298 327 332 332 338
354 359 356 357 359 352 354 355 351 356 352 353 63 73 72 226 239 126 185 260 257 358 356 25 55 44 15 4 332 300 108 5 6 42 20 30 65 2 346 339 1 37 79 51 30 35 57 293 306 358 344 6 23 355 93 113 66 315 147 87 58 130 116 110 189 175 212 303 311 301 215 214 230 260 275 263 264 262 266 275 277 277 271 280 311 327 335 338
350 353 353 354 352 349 352 351 349 356 352 359 61 62 121 200 218 145 170 267 204 141 19 352 45 59 360 319 340 8 82 342 19 50 20 22 121 334 352 278 341 35 76 80 55 5 44 304 299 348 23 38 19 338 40 66 327 348 56 55 246 151 116 106 187 43 68 62 296 299 280 295 318 337 335 334 297 282 273 266 269 281 282 285 306 324 332 333
348 348 348 348 350 350 348 347 351 354 352 33 79 86 193 181 144 192 352 22 146 113 93 44 3 52 359 316 324 333 347 357 29 53 33 12 5 333 338 307 334 24 48 103 123 95 100 279 307 5 57 11 2 346 30 39 42 58 56 194 187 88 92 101 78 354 34 54 278 327 312 299 338 335 323 338 302 285 273 262 267 283 294 300 310 323 329 329
345 343 343 345 349 348 345 347 350 349 6 57 84 125 167 89 20 315 19 49 135 72 83 113 185 166 195 190 320 316 346 1 14 52 67 13 38 329 315 327 358 20 22 70 112 61 84 306 308 317 181 332 355 18 343 12 42 84 124 152 109 75 18 30 63 12 12 333 289 315 314 270 218 229 294 301 260 263 273 274 273 278 297 311 315 323 329 331
342 337 342 348 347 347 348 347 343 349 46 70 105 165 128 96 51 56 61 42 42 65 88 164 170 76 158 160 289 308 6 34 31 62 92 69 48 335 317 299 337 11 16 56 121 256 67 75 293 287 289 315 353 45 227 325 24 68 99 58 26 109 148 352 54 132 242 300 290 319 332 284 232 214 213 237 242 249 267 281 271 273 301 318 319 324 329 331
340 338 344 345 346 349 348 350 7 38 66 83 149 164 95 141 105 70 80 58 43 73 110 189 161 96 141 192 285 330 31 57 75 77 74 67 74 322 4 29 313 349 8 53 93 68 23 65 284 297 344 339 337 40 167 201 6 18 43 22 360 46 99 313 40 102 133 150 211 322 320 277 248 205 196 225 242 246 248 250 260 281 310 322 324 327 329 331
343 349 345 346 354 355 354 16 38 53 85 99 127 137 89 139 133 89 87 91 76 83 113 147 134 123 143 126 100 185 59 54 56 69 89 98 93 357 10 41 360 335 354 43 56 32 34 74 286 297 349 12 243 309 337 214 187 186 76 101 139 65 70 76 330 320 92 118 168 159 284 277 261 202 207 229 247 264 259 248 266 292 312 322 326 329 329 333
355 2 342 350 359 356 13 48 43 48 99 101 84 115 117 127 134 113 94 89 77 80 93 103 88 103 135 123 128 165 106 77 53 68 136 241 164 152 34 34 8 352 36 80 3 352 125 94 61 272 279 280 273 305 12 16 76 110 47 104 129 110 103 118 244 272 32 32 103 118 268 273 260 217 231 247 257 272 272 263 278 299 314 321 325 328 331 337
4 9 338 348 352 352 39 65 33 26 64 99 93 99 108 112 114 123 101 62 61 82 78 72 58 80 147 175 119 130 135 122 133 115 214 255 253 111 39 13 3 8 55 147 236 290 85 74 41 296 296 327 318 322 11 27 51 78 325 66 115 116 116 137 171 183 181 255 126 73 287 269 270 252 241 252 266 280 283 285 293 303 314 322 324 327 334 339
6 17 4 1 346 323 94 103 108 73 66 103 82 68 73 75 64 81 113 62 65 112 101 105 136 93 116 132 104 116 216 110 93 72 147 195 195 87 8 16 22 44 77 122 138 100 294 71 63 8 349 347 344 347 346 354 31 202 243 124 120 99 99 119 132 77 315 227 157 133 251 257 269 277 266 273 283 288 292 300 307 309 314 321 324 329 335 338
354 2 25 23 12 35 111 116 136 138 146 114 89 55 56 60 42 51 90 93 86 98 105 109 130 112 107 96 79 61 10 44 72 61 58 78 254 255 61 31 36 80 86 80 87 115 159 165 112 93 59 335 315 307 296 300 289 237 181 157 166 126 125 150 110 76 277 237 156 167 233 261 281 286 288 289 289 295 303 313 317 317 319 322 325 330 334 336
39 95 17 25 32 67 88 98 118 127 149 138 102 44 78 78 27 60 81 82 80 84 88 100 127 113 83 80 78 49 5 16 52 119 123 252 261 273 358 58 88 103 96 56 17 71 107 136 168 154 173 204 230 246 249 332 294 255 235 202 192 162 136 121 104 157 203 184 198 226 238 281 290 288 294 300 301 304 309 313 316 318 320 321 323 326 328 333
85 96 4 23 37 64 74 76 98 115 141 149 127 150 136 109 358 65 64 50 99 96 72 72 128 133 120 131 105 66 341 351 17 88 134 230 264 307 302 209 127 118 143 130 360 68 92 333 265 175 216 240 244 253 248 135 244 243 235 215 194 175 149 141 171 201 158 118 269 255 209 247 279 286 295 295 297 300 301 305 309 311 314 317 321 322 324 331
106 150 126 100 76 63 63 65 100 107 109 116 117 138 133 123 155 161 124 89 116 125 83 35 300 246 175 159 129 124 143 6 360 100 138 237 284 339 334 236 182 163 150 127 18 82 111 250 247 166 265 271 269 278 267 219 244 250 236 228 208 182 178 192 214 194 156 195 255 263 198 244 272 287 291 286 288 292 295 300 304 308 314 319 321 320 323 331
113 125 123 111 111 109 103 111 114 103 89 79 92 121 153 156 171 191 159 107 55 6 124 218 279 226 156 128 105 128 190 154 329 256 182 155 236 297 353 271 185 162 141 104 32 66 114 242 226 143 290 284 281 294 282 221 255 272 243 229 216 202 198 210 228 201 187 234 256 270 281 276 274 275 277 282 287 291 294 299 306 312 318 321 320 321 325 331
153 144 138 117 100 93 100 110 110 96 69 49 85 149 168 160 172 190 154 131 130 201 178 204 208 146 128 112 97 99 217 172 113 241 177 142 197 220 205 224 164 125 82 82 41 55 109 277 205 105 318 296 299 317 312 202 226 263 262 240 212 213 215 223 240 217 204 247 261 270 279 277 272 271 274 283 290 294 296 301 309 316 320 321 321 323 327 330
186 178 160 131 99 71 89 94 87 95 74 30 119 169 188 187 180 155 118 95 132 162 192 175 153 129 79 84 121 320 226 143 96 107 160 144 130 188 189 214 161 137 87 93 37 35 102 311 16 57 358 293 296 320 310 295 253 263 279 257 202 196 208 217 227 201 194 227 258 277 270 263 269 276 281 289 297 302 302 305 311 316 319 321 320 324 328 329
183 177 172 147 102 59 127 105 56 95 135 182 146 157 181 194 172 144 106 23 121 114 168 165 147 127 87 182 225 184 117 115 96 95 116 109 114 133 114 109 132 126 144 142 69 18 104 101 55 45 346 276 291 308 305 318 333 296 285 233 184 184 208 224 243 223 207 199 187 231 243 256 292 308 303 299 301 302 302 307 311 312 315 320 322 325 328 328